Wind_Speed
13 12 15 18 17 16 16 15 14 14 14 15 15 15 15 16 16 17 19 18 15 10 8 6 4 3 5 6 8 9 9 9 9 9 9 10 10 10 10 9 8 8 7
12 12 16 19 21 20 18 16 16 15 15 15 15 15 16 17 16 17 19 18 17 14 12 11 10 9 10 11 11 11 11 11 11 12 11 11 12 11 11 10 9 8 9
12 14 16 19 21 22 21 19 17 16 16 16 16 16 17 17 17 18 17 17 17 15 15 15 14 14 14 14 14 14 14 14 14 14 14 14 14 13 13 12 11 10 10
13 14 15 17 19 20 22 22 19 17 17 16 16 17 18 17 18 19 19 18 18 17 16 17 17 17 16 16 15 14 14 13 13 13 13 12 12 11 11 11 10 11 11
15 15 16 15 15 17 18 19 20 20 18 16 16 16 17 17 17 18 18 18 18 17 18 18 18 16 15 14 14 14 14 14 14 14 13 13 11 11 11 11 11 11 10
18 17 16 14 13 13 14 15 16 18 20 19 17 16 16 15 15 15 15 15 15 16 16 16 16 15 14 13 13 13 14 14 14 14 14 14 14 13 13 12 11 10 9
20 19 18 15 13 11 10 12 13 13 15 18 19 18 18 16 14 14 14 14 14 14 14 14 13 13 14 13 14 14 14 15 15 14 14 15 14 14 13 13 13 11 10
21 19 19 17 14 12 10 9 10 10 11 12 14 16 17 16 16 16 16 16 15 15 14 14 14 14 14 14 15 15 15 15 15 15 15 14 14 14 14 14 14 13 11
26 22 20 19 16 14 12 9 9 8 7 9 9 11 11 11 11 12 12 12 13 13 12 12 12 12 12 11 10 10 10 11 11 12 12 14 15 15 15 15 14 13 13
29 26 22 20 18 16 14 12 11 9 8 7 7 6 6 5 5 5 5 5 6 6 6 6 5 5 4 4 4 5 6 7 8 9 10 10 11 12 13 14 14 14 13
30 28 26 23 21 19 17 16 14 12 10 9 8 8 6 4 4 3 3 3 3 2 2 2 2 3 4 5 7 8 10 10 11 12 13 13 12 13 13 13 13 13 13
29 29 28 27 25 23 20 18 17 15 14 12 11 11 10 9 9 8 8 8 8 8 9 9 9 9 9 10 11 12 14 15 15 16 16 16 16 15 16 15 15 14 14
24 29 29 29 27 26 24 22 20 19 17 16 15 15 14 14 13 13 13 13 13 13 13 14 14 14 13 14 15 16 17 18 19 20 20 20 20 19 19 19 18 17 17
20 21 26 30 29 28 26 24 23 22 20 19 18 18 17 16 16 15 16 16 16 16 16 17 17 17 16 17 17 19 20 20 21 22 22 22 23 23 22 22 22 21 20
24 24 25 26 29 29 26 25 23 22 21 20 20 19 18 17 17 16 16 17 17 18 19 19 18 18 19 20 20 20 21 22 23 23 24 24 24 24 24 24 23 22 22
24 21 21 24 26 26 25 24 23 21 21 20 19 18 19 19 19 18 18 19 19 20 20 20 21 21 21 21 21 22 23 24 24 24 24 24 24 24 25 26 25 24 23
24 22 19 20 21 21 22 22 21 20 20 20 20 19 18 19 18 18 19 19 20 21 22 22 22 22 22 23 24 25 26 27 26 25 25 25 26 26 27 27 27 26 25
25 24 21 20 20 20 20 20 20 20 21 21 20 19 19 20 20 20 20 21 23 23 23 23 23 24 25 26 27 29 29 29 28 28 28 29 29 30 30 29 29 29 29
26 26 24 21 21 21 21 20 21 22 22 22 22 22 23 24 24 24 24 24 25 25 25 25 26 27 29 30 31 31 32 32 32 32 32 33 33 33 32 32 31 32 32
29 29 26 24 23 23 22 22 23 24 24 25 25 25 27 27 28 28 27 27 28 27 27 28 29 31 32 33 34 35 35 35 35 35 36 36 35 32 31 32 33 33 33
28 29 26 24 23 23 22 24 25 24 26 27 28 29 30 30 30 30 30 29 30 30 30 31 33 34 35 36 38 39 40 39 39 38 34 32 31 31 31 31 32 33 34
30 28 27 26 25 24 24 24 25 25 26 27 28 29 30 30 31 31 31 31 33 34 34 35 37 36 38 38 40 41 42 40 40 34 33 31 30 31 32 33 34 34 35
31 30 30 28 28 28 28 28 29 29 29 29 30 32 32 32 32 33 33 34 35 36 36 36 36 38 39 38 36 38 39 39 39 37 32 30 28 29 29 30 29 30 31
32 32 30 30 29 31 29 30 30 29 30 30 31 32 33 33 33 34 34 35 37 38 38 38 38 39 39 39 38 36 36 36 37 38 35 30 28 30 29 29 29 29 31
37 37 34 35 33 32 32 32 32 32 32 32 33 34 35 35 36 37 37 37 38 37 37 37 36 37 36 36 35 34 33 35 34 35 38 36 32 26 28 30 29 28 30
33 37 35 30 29 28 29 30 32 32 33 34 35 36 37 38 38 38 38 37 36 35 34 34 33 33 33 34 35 34 34 35 36 36 38 36 34 31 32 31 28 27 28
Wind_Direction
115 107 100 94 93 94 92 89 86 85 83 80 78 78 80 86 86 87 88 91 101 117 127 139 135 95 83 83 77 75 72 66 61 57 55 53 50 48 47 47 40 33 26
115 114 105 95 90 90 91 90 89 87 84 82 84 85 88 91 89 87 88 89 91 97 106 114 114 105 95 90 82 77 73 71 67 62 58 56 52 51 50 48 44 39 37
122 122 109 98 91 85 84 86 87 88 87 87 87 87 87 88 89 88 89 91 93 94 99 102 103 99 93 88 83 79 77 73 69 64 59 55 51 52 51 48 44 39 38
130 132 116 103 95 89 84 81 82 85 86 86 87 86 87 88 88 90 90 91 92 94 95 96 95 92 90 86 82 78 74 70 65 60 55 52 48 45 47 43 37 35 31
142 143 129 115 105 95 88 82 78 79 83 86 87 87 87 88 89 90 91 92 92 92 91 91 91 89 86 82 77 71 66 62 58 55 53 49 46 39 34 29 28 24 16
154 152 140 129 120 107 97 88 78 75 77 79 83 86 88 89 91 92 93 92 91 88 87 87 85 82 78 74 69 64 60 57 53 49 47 43 40 37 33 28 22 15 8
168 159 152 144 138 129 117 106 93 81 71 71 73 82 85 87 89 92 92 91 88 86 84 82 80 76 73 67 62 58 54 51 48 43 40 38 36 34 29 24 19 14 7
179 170 166 159 155 153 149 135 119 105 94 73 73 71 76 82 84 87 86 84 83 84 84 81 77 73 69 64 60 57 54 50 46 40 35 31 27 23 20 18 15 10 4
186 185 180 177 172 169 171 170 155 139 118 115 94 90 75 70 67 72 74 78 82 82 82 79 73 69 65 60 55 47 42 36 32 26 22 22 19 15 14 9 7 4 1
193 193 193 193 189 186 186 190 186 179 168 162 155 140 129 103 87 75 74 70 79 78 78 70 58 56 54 42 22 6 358 356 353 348 348 353 352 353 355 359 360 357 354
197 200 200 202 202 199 199 201 202 205 203 202 201 200 199 202 215 207 216 207 224 224 240 266 303 324 314 311 311 310 312 314 315 319 322 320 319 319 324 329 334 339 343
204 206 206 207 207 209 209 210 212 215 220 224 228 231 233 238 244 247 249 254 258 262 268 274 279 283 287 292 294 298 300 301 302 302 300 301 304 306 307 310 310 313 319
214 214 213 212 214 214 216 217 219 223 227 233 238 243 244 247 252 256 260 261 263 267 271 275 278 282 285 288 291 294 295 295 296 296 297 298 299 300 299 298 301 302 303
210 214 217 218 219 220 220 224 225 228 232 237 243 246 252 254 257 259 261 263 265 268 270 273 277 280 284 287 288 288 290 291 291 293 296 298 298 298 295 293 295 294 295
209 218 220 220 221 223 224 227 230 232 237 242 244 248 252 254 255 257 259 262 265 267 269 271 274 278 282 284 284 285 286 289 292 294 295 297 297 296 295 294 292 290 289
200 205 213 217 220 221 221 223 228 232 237 239 242 246 252 257 260 261 262 264 264 265 268 271 274 276 279 281 282 284 287 291 294 296 297 298 297 294 292 292 292 291 289
200 197 195 202 204 206 209 214 218 222 228 236 243 250 255 261 264 268 269 268 267 268 270 272 274 277 278 280 282 286 289 293 295 296 295 297 296 294 292 290 289 288 288
205 197 198 200 200 202 206 211 218 225 233 241 249 256 261 265 268 270 274 272 271 272 273 274 275 276 278 279 282 285 289 291 292 291 292 295 294 293 291 287 285 285 286
208 203 202 203 207 209 214 221 228 235 242 251 258 262 265 266 268 268 272 273 273 273 274 276 276 277 278 280 282 283 286 288 288 288 292 293 292 291 288 284 281 282 284
208 208 211 213 215 219 226 233 241 247 251 256 259 260 262 264 267 270 271 271 270 272 274 275 274 276 277 278 279 280 283 284 285 287 289 291 290 290 285 282 282 282 281
211 210 214 216 221 228 235 242 248 253 254 256 258 260 263 265 268 270 271 271 270 271 272 274 275 275 275 277 279 282 283 282 284 289 289 288 291 289 286 282 283 282 281
212 212 214 219 225 233 240 247 252 255 259 261 264 265 267 269 270 271 272 271 271 272 272 273 273 273 274 276 279 281 284 285 288 286 286 288 287 284 285 285 284 281 280
219 219 220 224 231 237 245 251 254 256 257 258 260 263 266 268 269 270 271 272 272 272 273 273 274 275 277 279 281 283 287 291 292 293 291 291 289 286 287 288 286 285 281
227 232 234 239 241 243 247 253 256 257 258 258 260 263 265 268 270 271 272 273 274 275 275 273 274 276 279 282 282 281 283 283 288 291 293 293 291 290 291 287 288 286 282
231 236 243 244 246 251 252 252 254 256 260 262 264 265 267 269 271 273 274 275 275 274 274 275 275 276 277 278 280 281 281 284 286 289 291 294 294 293 290 290 292 287 284
235 233 235 238 241 246 250 252 255 258 261 265 267 270 271 272 273 274 275 276 277 277 277 277 277 278 279 280 283 284 285 286 288 286 286 289 292 292 294 295 292 290 286
Height
3196 3196 3196 3195 3196 3196 3195 3196 3196 3196 3195 3194 3193 3193 3193 3192 3192 3192 3190 3190 3190 3191 3192 3193 3193 3193 3192 3192 3192 3191 3191 3190 3189 3187 3186 3185 3185 3184 3183 3182 3181 3180 3179
3196 3197 3196 3197 3197 3197 3197 3197 3197 3197 3196 3196 3196 3195 3195 3194 3194 3194 3192 3192 3192 3193 3193 3193 3193 3193 3193 3193 3193 3193 3192 3191 3190 3189 3188 3187 3185 3184 3183 3182 3182 3181 3180
3197 3198 3198 3198 3198 3198 3198 3198 3199 3199 3198 3198 3198 3197 3197 3196 3196 3195 3195 3195 3195 3195 3195 3195 3195 3195 3195 3195 3195 3194 3194 3192 3191 3190 3189 3188 3187 3186 3185 3184 3183 3182 3181
3197 3198 3199 3200 3200 3200 3201 3201 3201 3201 3200 3200 3200 3199 3199 3199 3198 3198 3198 3198 3198 3198 3198 3197 3197 3197 3197 3197 3197 3196 3195 3194 3192 3191 3190 3189 3188 3187 3186 3185 3184 3182 3181
3197 3199 3200 3201 3202 3202 3203 3203 3203 3203 3202 3202 3202 3201 3201 3201 3201 3201 3201 3201 3201 3200 3200 3200 3199 3200 3199 3199 3198 3198 3197 3195 3194 3192 3191 3191 3189 3188 3187 3186 3185 3184 3182
3196 3198 3200 3201 3203 3204 3204 3205 3205 3205 3205 3205 3204 3203 3203 3204 3204 3204 3204 3204 3203 3203 3202 3202 3202 3202 3201 3201 3200 3199 3198 3197 3196 3195 3194 3192 3191 3189 3188 3187 3185 3184 3183
3196 3197 3199 3201 3203 3205 3206 3206 3207 3207 3207 3207 3207 3206 3206 3207 3207 3206 3206 3206 3205 3205 3204 3204 3204 3203 3202 3202 3201 3200 3199 3198 3197 3196 3195 3194 3193 3191 3189 3188 3186 3185 3183
3195 3197 3199 3200 3202 3204 3207 3208 3208 3209 3209 3208 3209 3208 3209 3209 3209 3209 3208 3207 3207 3207 3206 3206 3205 3204 3204 3203 3203 3202 3201 3200 3198 3197 3196 3195 3193 3192 3190 3188 3187 3185 3184
3194 3197 3198 3200 3201 3203 3205 3208 3209 3210 3210 3210 3209 3209 3210 3210 3210 3210 3210 3209 3209 3208 3208 3207 3207 3205 3204 3204 3203 3202 3201 3200 3199 3198 3197 3196 3194 3192 3190 3189 3187 3186 3184
3193 3195 3198 3199 3201 3202 3204 3206 3208 3209 3210 3210 3210 3210 3210 3211 3211 3211 3210 3210 3209 3209 3208 3208 3207 3206 3205 3204 3204 3203 3202 3201 3200 3199 3197 3196 3195 3193 3191 3189 3188 3186 3184
3190 3193 3196 3198 3200 3201 3203 3204 3206 3208 3208 3209 3210 3210 3210 3210 3210 3210 3210 3209 3209 3208 3208 3207 3207 3206 3205 3204 3203 3203 3202 3200 3199 3198 3196 3195 3194 3192 3191 3189 3187 3185 3183
3188 3191 3193 3196 3197 3199 3201 3202 3204 3205 3207 3208 3208 3209 3209 3209 3209 3209 3208 3207 3207 3207 3206 3206 3205 3205 3203 3202 3202 3201 3200 3199 3197 3196 3195 3193 3192 3191 3189 3188 3186 3184 3182
3186 3188 3191 3193 3195 3197 3198 3200 3201 3203 3204 3205 3206 3207 3207 3207 3207 3207 3206 3206 3205 3205 3204 3203 3203 3202 3201 3200 3199 3199 3198 3196 3195 3194 3192 3191 3190 3188 3187 3185 3183 3181 3180
3182 3185 3187 3190 3191 3194 3196 3198 3199 3200 3201 3202 3203 3204 3204 3205 3204 3204 3203 3203 3203 3202 3201 3201 3200 3199 3198 3198 3197 3196 3195 3193 3192 3190 3189 3188 3186 3185 3184 3182 3180 3178 3177
3177 3180 3183 3185 3188 3190 3192 3194 3196 3197 3199 3200 3201 3201 3202 3202 3201 3201 3200 3200 3199 3199 3198 3198 3197 3196 3195 3194 3193 3192 3191 3190 3188 3187 3185 3184 3183 3182 3180 3178 3176 3174 3173
3173 3176 3179 3181 3184 3186 3189 3190 3192 3194 3196 3197 3198 3198 3199 3198 3198 3198 3197 3196 3196 3195 3195 3194 3193 3192 3191 3190 3189 3188 3187 3185 3184 3183 3181 3180 3179 3177 3175 3174 3172 3170 3168
3171 3173 3176 3179 3181 3183 3185 3187 3189 3191 3192 3193 3194 3195 3195 3195 3195 3194 3193 3193 3192 3191 3191 3190 3189 3189 3188 3187 3185 3184 3182 3181 3180 3178 3177 3176 3174 3173 3171 3169 3167 3165 3163
3169 3170 3172 3175 3178 3181 3182 3184 3186 3188 3189 3190 3191 3192 3192 3192 3191 3191 3190 3189 3188 3187 3187 3186 3185 3184 3183 3182 3181 3179 3178 3177 3175 3174 3173 3171 3170 3168 3166 3164 3161 3159 3158
3166 3168 3171 3172 3176 3177 3179 3181 3183 3185 3186 3187 3188 3188 3188 3187 3187 3186 3186 3184 3183 3183 3182 3181 3181 3179 3178 3177 3176 3175 3173 3172 3170 3169 3167 3166 3164 3162 3159 3157 3156 3154 3153
3162 3165 3167 3170 3172 3173 3176 3178 3179 3181 3182 3183 3183 3183 3183 3182 3181 3181 3181 3180 3178 3178 3177 3176 3175 3174 3173 3172 3170 3169 3168 3166 3164 3162 3162 3159 3157 3155 3153 3150 3149 3148 3147
3158 3160 3163 3165 3168 3170 3171 3173 3174 3176 3177 3177 3177 3177 3176 3176 3176 3175 3175 3174 3173 3172 3171 3170 3169 3167 3167 3165 3163 3162 3160 3159 3157 3156 3154 3153 3150 3148 3146 3144 3142 3141 3140
3153 3156 3158 3161 3163 3164 3166 3168 3169 3170 3171 3171 3171 3171 3170 3170 3170 3169 3169 3168 3167 3166 3165 3164 3162 3160 3159 3159 3156 3154 3151 3152 3149 3150 3147 3146 3144 3141 3139 3137 3136 3134 3133
3148 3151 3153 3155 3157 3159 3160 3162 3163 3164 3164 3164 3164 3163 3164 3163 3163 3163 3162 3161 3160 3158 3158 3157 3155 3153 3151 3150 3150 3147 3144 3142 3139 3139 3139 3138 3137 3135 3133 3131 3130 3128 3126
3143 3145 3147 3149 3151 3152 3153 3155 3156 3157 3157 3157 3157 3157 3156 3156 3156 3155 3154 3154 3152 3151 3150 3149 3148 3146 3143 3142 3141 3140 3138 3136 3133 3130 3129 3131 3130 3128 3127 3125 3124 3121 3118
3138 3141 3142 3144 3145 3146 3147 3148 3149 3150 3150 3150 3150 3149 3149 3148 3147 3147 3146 3145 3143 3142 3141 3140 3139 3137 3136 3134 3133 3131 3130 3127 3126 3123 3120 3121 3122 3121 3119 3118 3115 3113 3111
3131 3133 3135 3136 3138 3139 3140 3141 3142 3142 3142 3142 3142 3142 3141 3140 3139 3137 3136 3135 3134 3133 3132 3132 3131 3129 3128 3126 3125 3123 3121 3119 3117 3117 3115 3113 3112 3113 3111 3109 3107 3105 3103